EW8728 Weather Reports


time (UTC)temp
C
wind
direction
speed
KPH
gust
KPH
rain 1hr
cm
rain 24hr
cm
rain mn
cm
humidity
%
barometer
mb
20260507181524 15 32 0.0 1.6 0.00 0.08 0.08 62 1013.0
20260507180024 15 39 0.0 0.0 0.00 0.08 0.08 63 1012.8
20260507174533 15 32 0.0 1.6 0.00 0.08 0.08 60 1012.7
20260507173029 16 33 0.0 3.2 0.00 0.08 0.08 59 1012.6
20260507171522 16 63 0.0 0.0 0.00 0.08 0.08 57 1012.5
20260507170022 17 31 0.0 3.2 0.00 0.08 0.08 57 1012.3
20260507164520 17 82 0.0 0.0 0.00 0.08 0.08 58 1012.4
20260507163019 16 117 0.0 0.0 0.00 0.08 0.08 58 1012.6
20260507161516 17 36 0.0 1.6 0.00 0.08 0.08 59 1012.5
20260507160019 16 59 0.0 0.0 0.00 0.08 0.08 63 1012.7
20260507154524 16 80 0.0 1.6 0.00 0.08 0.08 60 1012.7
20260507153028 17 32 0.0 4.8 0.00 0.08 0.08 56 1012.6
20260507151510 17 331 0.0 3.2 0.00 0.08 0.08 60 1012.6
20260507150007 17 34 0.0 1.6 0.00 0.08 0.08 59 1012.8
20260507144503 16 111 0.0 0.0 0.00 0.10 0.08 63 1012.8
20260507143111 15 26 0.0 6.4 0.00 0.10 0.08 65 1012.9
20260507141558 15 9 0.0 3.2 0.00 0.10 0.08 67 1012.9
20260507140057 15 37 0.0 1.6 0.00 0.10 0.08 65 1013.0
20260507134559 16 115 0.0 0.0 0.00 0.25 0.08 63 1013.1
20260507133100 16 31 0.0 1.6 0.00 0.25 0.08 63 1013.2
20260507131611 17 124 0.0 1.6 0.00 0.25 0.08 63 1013.3
20260507130050 16 32 0.0 0.0 0.00 0.25 0.08 68 1013.3
20260507124550 16 36 0.0 3.2 0.00 0.51 0.08 62 1013.4
20260507123048 16 25 0.0 0.0 0.00 0.51 0.08 66 1013.3
20260507121547 15 5 0.0 8.0 0.00 0.51 0.08 68 1013.4
20260507120045 15 18 0.0 3.2 0.00 0.51 0.08 69 1013.3
20260507114546 15 42 0.0 1.6 0.00 0.51 0.08 73 1013.3
20260507113040 15 261 0.0 3.2 0.00 0.51 0.08 76 1013.4
20260507111536 13 23 0.0 3.2 0.00 0.51 0.08 78 1013.5
20260507110032 13 30 0.0 3.2 0.00 0.51 0.08 77 1013.7
20260507104528 12 17 0.0 0.0 0.00 0.51 0.08 82 1013.7
20260507103029 11 339 0.0 4.8 0.00 0.51 0.08 81 1013.9
20260507101522 11 313 0.0 0.0 0.00 0.51 0.08 83 1014.0
20260507100026 11 37 0.0 4.8 0.00 0.51 0.08 85 1014.1
20260507094514 10 18 0.0 3.2 0.00 0.51 0.08 87 1014.1
20260507093011 10 13 0.0 1.6 0.00 0.51 0.08 87 1014.0
20260507091508 10 321 0.0 6.4 0.00 0.51 0.08 87 1014.0
20260507090005 10 282 0.0 8.0 0.03 0.51 0.08 87 1013.9
20260507084602 10 306 0.0 0.0 0.03 0.53 0.08 88 1013.8
20260507083101 9 292 0.0 0.0 0.03 0.53 0.08 88 1013.7
20260507081555 9 320 0.0 0.0 0.03 0.53 0.08 88 1013.6
20260507080107 9 321 0.0 3.2 0.03 0.51 0.05 89 1013.6
20260507074552 9 327 0.0 0.0 0.05 0.51 0.05 90 1013.5
20260507073049 8 327 0.0 0.0 0.05 0.51 0.05 89 1013.5
20260507071603 8 327 0.0 0.0 0.05 0.51 0.05 89 1013.4
20260507070043 8 327 0.0 1.6 0.03 0.51 0.05 89 1013.3
20260507064539 8 314 0.0 0.0 0.00 0.48 0.03 89 1013.2
20260507063042 8 308 0.0 0.0 0.00 0.48 0.03 89 1013.1
20260507061533 8 311 0.0 0.0 0.00 0.48 0.03 89 1013.0
20260507060035 8 336 0.0 0.0 0.00 0.48 0.03 89 1012.9
20260507054527 7 336 0.0 0.0 0.00 0.48 0.03 90 1012.8
20260507053032 7 336 0.0 0.0 0.00 0.48 0.03 89 1012.6
20260507051530 7 336 0.0 0.0 0.00 0.48 0.03 89 1012.5
20260507050021 7 336 0.0 0.0 0.00 0.48 0.03 89 1012.3
20260507044515 7 350 0.0 0.0 0.03 0.48 0.03 89 1012.1
20260507043014 7 350 0.0 0.0 0.03 0.48 0.03 89 1012.0
20260507041513 7 350 0.0 0.0 0.03 0.48 0.03 88 1011.9
20260507040013 7 350 0.0 0.0 0.03 0.48 0.03 88 1011.9
20260507034523 7 350 0.0 0.0 0.00 0.46 0.00 87 1011.8
20260507033015 7 350 0.0 0.0 0.00 0.46 0.00 87 1011.7
20260507031509 7 350 0.0 0.0 0.00 0.46 0.00 87 1011.5
20260507030007 7 350 0.0 0.0 0.00 0.46 0.00 86 1011.5
20260507024507 7 5 0.0 0.0 0.00 0.46 0.00 86 1011.5
20260507023013 7 294 0.0 0.0 0.00 0.46 0.00 86 1011.5
20260507021505 7 294 0.0 0.0 0.00 0.46 0.00 86 1011.3
20260507020006 7 299 0.0 0.0 0.00 0.46 0.00 86 1011.3
20260507014501 7 299 0.0 0.0 0.00 0.46 0.00 86 1011.1
20260507013059 7 299 0.0 0.0 0.00 0.46 0.00 87 1011.0
20260507011604 7 299 0.0 0.0 0.00 0.46 0.00 88 1010.9
20260507010109 7 299 0.0 0.0 0.00 0.46 0.00 88 1010.9
20260507004612 7 299 0.0 1.6 0.00 0.46 0.00 88 1010.8
20260507003059 7 299 0.0 0.0 0.00 0.46 0.00 88 1010.8
20260507001557 7 299 0.0 0.0 0.00 0.46 0.00 87 1010.8
20260507000055 7 299 0.0 0.0 0.00 0.46 0.00 88 1010.8
20260506234554 7 299 0.0 0.0 0.00 0.46 0.00 88 1010.7
20260506233057 7 301 0.0 0.0 0.00 0.46 0.00 88 1010.6
20260506231553 7 347 0.0 1.6 0.00 0.46 0.00 88 1010.5
20260506230050 7 347 0.0 0.0 0.00 0.46 0.00 88 1010.5
20260506224550 7 347 0.0 0.0 0.00 0.48 0.00 88 1010.4
20260506223049 7 347 0.0 0.0 0.00 0.48 0.00 88 1010.4
20260506221547 7 347 0.0 0.0 0.00 0.48 0.00 88 1010.4
20260506220049 7 349 0.0 0.0 0.00 0.48 0.00 88 1010.3
20260506214551 7 349 0.0 0.0 0.00 0.53 0.48 87 1010.3
20260506213043 7 349 0.0 0.0 0.00 0.53 0.48 86 1010.2
20260506211542 7 349 0.0 0.0 0.00 0.53 0.48 86 1010.3
20260506210041 7 350 0.0 0.0 0.00 0.53 0.48 87 1010.2
20260506204548 7 360 0.0 4.8 0.00 0.58 0.48 86 1010.1
20260506203040 7 277 0.0 0.0 0.00 0.58 0.48 86 1010.1
20260506201539 8 277 0.0 0.0 0.00 0.58 0.48 86 1010.0
20260506200137 8 277 0.0 4.8 0.00 0.58 0.48 85 1010.1
20260506194534 8 278 0.0 0.0 0.00 0.58 0.48 84 1009.8
20260506193034 8 278 0.0 8.0 0.00 0.58 0.48 83 1009.6
20260506191530 8 264 0.0 1.6 0.00 0.58 0.48 83 1009.4
20260506190028 8 314 0.0 3.2 0.00 0.58 0.48 83 1009.2
20260506184528 8 273 0.0 0.0 0.00 0.58 0.48 83 1009.2
20260506183027 9 334 0.0 4.8 0.00 0.58 0.48 83 1009.0